Weather History for Carlsbad, NM

Change the Weather History Date:

Tuesday, October 1, 2013

  Actual Average Record
Temperature  
Mean Temperature 70 °F -  
Max Temperature 93 °F 83 °F 100 °F (2000)
Min Temperature 48 °F 53 °F 44 °F (1965)
Cooling Degree Days 4    
Growing Degree Days 20 (Base 50)    
Moisture  
Dew Point 36 °F    
Average Humidity 32    
Maximum Humidity 71    
Minimum Humidity 10    
Precipitation  
Precipitation 0.00 in - - ()
Sea Level Pressure  
Sea Level Pressure 29.74 in    
Wind  
Wind Speed 6 mph (WSW)    
Max Wind Speed 13 mph    
Max Gust Speed 18 mph    
Visibility 10 miles    
Events      
Averages and records for this station are not official NWS values.
T = Trace of Precipitation, MM = Missing Value Source: NWS Daily Summary

Daily Weather History Graph

Daily Weather History Graph

Search for Another Location

Airport:

Trip Planner

Search our weather history database for the weather conditions in past years. The results will help you decide how hot, cold, wet, or windy it might be!

Date:

Astronomy

Oct. 01, 2013 Rise Set
Actual Time 6:51 AM MDT 6:41 PM MDT
Civil Twilight 6:26 AM MDT 7:05 PM MDT
Nautical Twilight 5:58 AM MDT 7:34 PM MDT
Astronomical Twilight 5:29 AM MDT 8:02 PM MDT
Moon 3:37 AM MDT (10/1) 4:38 PM MDT (10/1)
Length of Visible Light 12h 39m
Length of Day
11h 50m
Waning Crescent, 11% of the Moon is Illuminated
Oct 1
Waning Crescent
Oct 4
New
Oct 11
First Quarter
Oct 18
Full
Oct 26
Last Quarter

Hourly Weather History & Observations

Time (MDT) Temp. Dew Point Humidity Pressure Visibility Wind Dir Wind Speed Gust Speed Precip Events Conditions
12:53 AM 68.0 °F 36.0 °F 31% 29.69 in 10.0 mi West 6.9 mph - N/A   Clear
1:53 AM 63.0 °F 37.9 °F 40% 29.70 in 10.0 mi Variable 5.8 mph - N/A   Clear
2:53 AM 57.9 °F 39.9 °F 51% 29.70 in 10.0 mi ESE 4.6 mph - N/A   Clear
3:53 AM 57.0 °F 39.9 °F 53% 29.71 in 10.0 mi NE 3.5 mph - N/A   Clear
4:53 AM 55.0 °F 39.9 °F 57% 29.72 in 10.0 mi NNW 4.6 mph - N/A   Clear
5:53 AM 48.9 °F 39.9 °F 71% 29.76 in 10.0 mi WSW 4.6 mph - N/A   Clear
6:53 AM 48.9 °F 39.9 °F 71% 29.79 in 10.0 mi WNW 3.5 mph - N/A   Clear
7:53 AM 60.1 °F 43.0 °F 53% 29.80 in 10.0 mi Calm Calm - N/A   Clear
8:53 AM 69.1 °F 41.0 °F 36% 29.80 in 10.0 mi WNW 3.5 mph - N/A   Clear
9:53 AM 75.9 °F 37.9 °F 25% 29.80 in 10.0 mi Calm Calm - N/A   Clear
10:53 AM 82.0 °F 41.0 °F 23% 29.78 in 10.0 mi SSE 3.5 mph - N/A   Clear
11:53 AM 87.1 °F 41.0 °F 20% 29.75 in 10.0 mi Variable 5.8 mph - N/A   Clear
12:53 PM 91.0 °F 30.0 °F 11% 29.73 in 10.0 mi West 9.2 mph - N/A   Clear
1:53 PM 91.9 °F 32.0 °F 12% 29.71 in 10.0 mi West 9.2 mph - N/A   Clear
2:53 PM 91.0 °F 28.0 °F 10% 29.70 in 10.0 mi SW 11.5 mph 18.4 mph N/A   Clear
3:53 PM 91.0 °F 30.9 °F 12% 29.70 in 10.0 mi WSW 11.5 mph - N/A   Clear
4:53 PM 90.0 °F 28.0 °F 11% 29.70 in 10.0 mi WSW 9.2 mph - N/A   Clear
5:53 PM 86.0 °F 26.1 °F 11% 29.72 in 10.0 mi WSW 12.7 mph - N/A   Clear
6:53 PM 72.0 °F 35.1 °F 26% 29.76 in 10.0 mi WSW 11.5 mph - N/A   Clear
7:53 PM 68.0 °F 35.1 °F 30% 29.76 in 10.0 mi WSW 10.4 mph - N/A   Clear
8:53 PM 66.0 °F 34.0 °F 30% 29.76 in 10.0 mi SW 9.2 mph - N/A   Clear
9:53 PM 66.9 °F 32.0 °F 27% 29.75 in 10.0 mi WSW 10.4 mph - N/A   Clear
10:53 PM 71.1 °F 30.9 °F 23% 29.74 in 10.0 mi WSW 11.5 mph - N/A   Clear
11:53 PM 64.9 °F 33.1 °F 31% 29.74 in 10.0 mi Calm Calm - N/A   Clear